FENGYUN 1C DEB, 47040

Orbit data source: Space-Track

FENGYUN 1C DEB, 47040 is space debris in SSO originally from a launch on Mon, 10 May 1999 UTC launched from the Taiyaun Space Center, China (TSC). Fengyun 1C debris stems from the Chinese weather satellite Fengyun-1C, which was intentionally destroyed by a Chinese anti-satellite missile in 2007. This event dramatically increased the amount of space debris, with thousands of trackable fragments posing hazards to satellites and human spaceflight. The Fengyun 1C debris cloud has become a focal point in discussions about space sustainability and the need for international regulations to prevent the creation of new debris.

Loading next visibility...
Identifier
47040, 1999-025FBS
Orbit
SSO
Country
Flag of CNCN / PRC
Related business
Manufacturer
Unknown
Mission
Spacecraft
Bus & Motor
Unknown
Mass
Unknown
Launch date (UTC)
1999-05-10 (27 years ago)
Launch vehicle
Unknown
Launch site
Taiyaun Space Center, China (TSC)
Object type
Payload
Rocket body
Debris
Shape & HBR
Unknown shape, 0.1 m
Radar Cross Section
Small (<0.1 m²)

Expand to show TLE details & history
Last TLE update: 2 weeks ago

TLE from 2 weeks ago
0 FENGYUN 1C DEB
1 47040U 99025FBS 26158.53025816  .00000926  00000-0  57871-3 0  9990
2 47040 100.2982  94.4408 0063890 118.5481 242.2134 14.06790121915949
Epoch: 2026-06-07T12:43Z
TLE epoch observation values (Epoch: 2026-06-07T12:43:34.305Z)
Latitude
0.00005°
Longitude
7.61771°
Altitude
895.042 km
Speed
7.393 km/s
True Right ascension
06h 17m 45s
True Declination
0° 00' 00"
Sunlit
Object was in daylight at epoch
Visualization orbit readout
Latitude
Unknown
Longitude
Unknown
Altitude
Unknown
Speed
Unknown
Apparent Right ascension
Unknown
Apparent Declination
Unknown
Sunlit
N/A
Visualization observer readout
Local Sidereal Time
21:39:21
Azimuth
Unknown
Elevation
Unknown
Doppler factor
Unknown
Orbital elements
Apogee altitude
913.928 km
Perigee altitude
821.342 km
Semi-major axis
7,245.772 km
Eccentricity
0.00639
Inclination
100.2982°
RAAN
94.4408°
Arg. of periapsis
118.5481°
True anomaly
241.56811°
Mean anomaly
242.2134°
Eccentric anomaly
241.89051°
Mean motion
3.51897 °/min
Orbital period
102.3 mins
BSTAR
0.00057871
Loading maneuver chart data...
Computing Atmospheric mass density...
Loading historical data...
Loading historical data...
Loading historical data...
Loading historical data...
Loading historical data...
Loading historical data...
Loading historical data...

Documentation

Showing up to 5 results
|